DW9882 Weather Reports


time (UTC)temp
F
wind
direction
speed
knots
gust
knots
rain 1hr
in
rain 24hr
in
rain mn
in
humidity
%
barometer
mb
20260507210704 66 328 2.6 10.4 0.00 0.41 0.02 30 1015.5
20260507210205 66 259 2.6 8.7 0.00 0.42 0.02 28 1015.6
20260507205705 67 241 0.9 7.8 0.00 0.42 0.02 29 1015.6
20260507205205 68 294 0.9 7.8 0.00 0.43 0.02 30 1015.7
20260507204704 69 268 0.9 5.2 0.00 0.43 0.02 28 1015.7
20260507204205 69 0 0.9 2.6 0.00 0.44 0.02 29 1015.7
20260507203704 70 253 0.9 2.6 0.00 0.44 0.02 31 1015.8
20260507202705 70 241 1.7 6.1 0.00 0.44 0.02 30 1015.9
20260507202204 69 280 2.6 7.0 0.00 0.45 0.02 29 1015.9
20260507201704 69 310 1.7 7.8 0.00 0.45 0.02 32 1015.9
20260507201205 69 297 0.9 4.3 0.00 0.46 0.02 29 1016.0
20260507200705 69 3 1.7 5.2 0.00 0.46 0.02 28 1016.0
20260507200204 69 4 1.7 5.2 0.00 0.46 0.02 30 1016.1
20260507195704 68 254 0.9 2.6 0.00 0.47 0.02 32 1016.1
20260507195205 67 180 0.9 2.6 0.00 0.47 0.02 30 1016.1
20260507194705 67 209 1.7 4.3 0.00 0.48 0.02 36 1016.2
20260507194205 66 197 3.5 8.7 0.00 0.48 0.02 35 1016.2
20260507193704 65 353 2.6 7.8 0.00 0.48 0.02 32 1016.2
20260507193205 65 45 2.6 7.0 0.00 0.49 0.02 30 1016.3
20260507192705 65 286 0.9 6.1 0.00 0.49 0.02 37 1016.4
20260507192205 64 109 0.9 1.7 0.00 0.50 0.02 35 1016.4
20260507191705 64 332 0.9 2.6 0.00 0.50 0.02 35 1016.4
20260507191205 64 321 0.0 2.6 0.00 0.50 0.02 34 1016.5
20260507190705 64 174 0.0 1.7 0.00 0.50 0.02 34 1016.5
20260507190204 64 174 0.9 1.7 0.00 0.50 0.02 35 1016.6
20260507184704 64 212 1.7 4.3 0.00 0.51 0.02 36 1016.7
20260507184205 63 175 0.0 2.6 0.00 0.52 0.02 35 1016.7
20260507183705 63 254 0.0 0.9 0.00 0.52 0.02 34 1016.8
20260507182704 63 254 0.9 2.6 0.00 0.52 0.02 36 1016.8
20260507182206 63 255 0.0 0.9 0.00 0.53 0.02 36 1016.9
20260507181705 63 255 0.9 2.6 0.00 0.53 0.02 36 1016.9
20260507181205 63 15 0.0 1.7 0.00 0.53 0.02 35 1017.0
20260507180205 62 15 0.0 1.7 0.00 0.53 0.02 37 1017.0
20260507175704 62 15 0.0 1.7 0.00 0.53 0.02 35 1017.0
20260507175204 62 15 0.0 2.6 0.00 0.53 0.02 37 1017.0
20260507174705 62 15 0.0 0.0 0.00 0.54 0.02 38 1017.0
20260507174205 62 15 0.0 1.7 0.00 0.54 0.02 37 1017.0
20260507173705 62 17 0.9 1.7 0.00 0.54 0.02 36 1017.1
20260507172704 62 319 0.9 1.7 0.00 0.54 0.02 35 1017.1
20260507172205 62 281 0.9 5.2 0.00 0.54 0.02 36 1017.2
20260507171705 62 269 0.9 2.6 0.00 0.54 0.02 36 1017.1
20260507171205 62 269 0.0 1.7 0.00 0.54 0.02 34 1017.2
20260507170705 62 269 0.0 0.9 0.00 0.54 0.02 36 1017.2
20260507170205 62 269 0.0 2.6 0.00 0.54 0.02 36 1017.2
20260507165705 62 269 0.9 2.6 0.00 0.54 0.02 35 1017.2
20260507165205 62 270 1.7 4.3 0.00 0.54 0.02 35 1017.2
20260507164704 63 282 1.7 7.0 0.00 0.54 0.02 34 1017.3
20260507164204 63 243 0.9 2.6 0.00 0.54 0.02 34 1017.3
20260507163205 63 250 0.9 2.6 0.00 0.54 0.02 35 1017.3
20260507162704 63 267 0.0 2.6 0.00 0.55 0.02 37 1017.4
20260507162204 62 5 0.9 1.7 0.00 0.55 0.02 37 1017.4
20260507161705 62 5 1.7 4.3 0.00 0.55 0.02 36 1017.5
20260507161205 63 73 0.9 2.6 0.00 0.55 0.02 36 1017.5
20260507160705 63 151 0.9 5.2 0.00 0.55 0.02 36 1017.4
20260507160204 63 208 1.7 5.2 0.00 0.55 0.02 37 1017.4
20260507155705 62 260 1.7 10.4 0.00 0.55 0.02 38 1017.4
20260507155205 62 3 0.9 5.2 0.00 0.55 0.02 39 1017.5
20260507154704 62 282 2.6 7.0 0.00 0.55 0.02 39 1017.5
20260507154205 61 59 1.7 7.0 0.00 0.55 0.02 38 1017.5
20260507153704 61 312 0.9 4.3 0.00 0.55 0.02 40 1017.5
20260507153204 60 308 0.0 2.6 0.00 0.55 0.02 39 1017.5
20260507151705 59 276 1.7 7.8 0.00 0.56 0.02 40 1017.5
20260507151204 58 252 0.9 2.6 0.00 0.56 0.02 41 1017.5
20260507150704 58 258 2.6 7.8 0.00 0.56 0.02 42 1017.6
20260507150205 57 251 3.5 10.4 0.00 0.56 0.02 40 1017.5
20260507145704 57 247 3.5 7.8 0.00 0.56 0.02 42 1017.6
20260507145204 56 275 0.9 2.6 0.00 0.56 0.02 43 1017.5
20260507144704 56 276 2.6 7.8 0.00 0.56 0.02 43 1017.5
20260507143704 55 248 1.7 7.0 0.00 0.56 0.02 45 1017.6
20260507143205 55 289 1.7 5.2 0.00 0.56 0.02 44 1017.6
20260507142204 54 217 0.9 7.8 0.01 0.56 0.02 45 1017.5
20260507141704 54 215 1.7 6.1 0.01 0.56 0.02 46 1017.4
20260507141205 53 274 0.9 6.1 0.01 0.56 0.02 45 1017.4
20260507140705 53 250 1.7 7.0 0.01 0.56 0.02 45 1017.4
20260507140205 52 165 0.0 7.8 0.01 0.56 0.02 46 1017.4
20260507135704 52 266 0.9 13.9 0.01 0.56 0.02 46 1017.4
20260507135204 52 248 1.7 7.0 0.01 0.56 0.02 48 1017.5
20260507134705 51 221 1.7 10.4 0.01 0.56 0.02 47 1017.6
20260507134204 51 230 1.7 8.7 0.01 0.56 0.02 47 1017.5
20260507133704 51 251 3.5 10.4 0.01 0.56 0.02 48 1017.5
20260507133204 50 208 2.6 10.4 0.01 0.56 0.02 48 1017.6
20260507132705 50 15 2.6 10.4 0.00 0.55 0.01 48 1017.5
20260507131704 49 207 1.7 10.4 0.00 0.55 0.01 49 1017.3
20260507131204 49 264 4.3 11.3 0.00 0.55 0.01 49 1017.3
20260507130704 49 282 1.7 10.4 0.00 0.55 0.01 50 1017.4
20260507130205 48 296 3.5 11.3 0.00 0.55 0.01 51 1017.4
20260507125704 48 261 2.6 11.3 0.00 0.55 0.01 51 1017.3
20260507125204 48 269 2.6 8.7 0.00 0.55 0.01 52 1017.3
20260507124204 47 297 2.6 10.4 0.00 0.55 0.01 52 1017.2
20260507123705 47 295 1.7 7.0 0.00 0.55 0.01 53 1017.2
20260507123204 47 227 2.6 10.4 0.01 0.55 0.01 54 1017.2
20260507122204 45 232 1.7 7.8 0.01 0.55 0.01 55 1017.1
20260507121705 44 278 3.5 10.4 0.01 0.55 0.01 57 1017.1
20260507121204 44 277 1.7 7.8 0.01 0.55 0.01 58 1017.2
20260507120704 43 286 1.7 6.1 0.01 0.55 0.01 59 1017.2
20260507120204 43 264 1.7 6.1 0.01 0.55 0.01 61 1017.2
20260507115704 42 243 0.9 6.1 0.01 0.55 0.01 61 1017.1
20260507115204 42 250 0.9 7.0 0.01 0.55 0.01 62 1017.2
20260507114705 42 269 0.9 7.0 0.01 0.55 0.01 61 1017.1
20260507114204 42 182 0.0 0.0 0.01 0.55 0.01 60 1017.2
20260507113704 43 182 0.0 0.0 0.01 0.55 0.01 59 1017.3
20260507112704 43 182 0.0 0.9 0.00 0.54 0.00 59 1017.3
20260507112205 43 182 0.9 1.7 0.00 0.54 0.00 57 1017.3
20260507111704 43 182 0.9 1.7 0.00 0.54 0.00 57 1017.3
20260507111205 43 182 0.0 2.6 0.00 0.54 0.00 57 1017.2
20260507110705 43 173 1.7 5.2 0.00 0.54 0.00 57 1017.0
20260507105705 43 328 0.9 2.6 0.00 0.54 0.00 57 1017.3
20260507105204 43 215 1.7 6.1 0.00 0.54 0.00 57 1017.2
20260507104704 42 175 0.9 2.6 0.00 0.54 0.00 58 1017.2
20260507104204 42 220 0.9 5.2 0.00 0.54 0.00 59 1017.3
20260507103704 42 244 0.9 2.6 0.00 0.54 0.00 59 1017.2
20260507103204 42 200 1.7 5.2 0.00 0.54 0.00 59 1017.3
20260507102704 42 208 0.9 2.6 0.00 0.54 0.00 59 1017.3
20260507102205 41 222 0.9 2.6 0.00 0.54 0.00 60 1017.3
20260507101704 41 232 0.0 5.2 0.00 0.54 0.00 60 1017.4
20260507100704 41 139 0.0 1.7 0.00 0.54 0.00 62 1017.4
20260507100205 41 139 0.0 1.7 0.00 0.54 0.00 61 1017.4
20260507095704 41 139 0.0 2.6 0.00 0.54 0.00 61 1017.4
20260507095204 41 251 0.9 2.6 0.00 0.54 0.00 61 1017.4
20260507094704 41 254 0.9 5.2 0.00 0.54 0.00 60 1017.4
20260507093704 41 193 0.9 7.8 0.00 0.54 0.00 59 1017.4
20260507093205 41 218 1.7 7.0 0.00 0.54 0.00 60 1017.5
20260507092204 40 245 0.0 10.4 0.00 0.54 0.00 61 1017.6
20260507091704 39 202 0.9 5.2 0.00 0.54 0.00 64 1017.6
20260507091204 39 180 1.7 2.6 0.00 0.54 0.00 65 1017.7
20260507090704 39 221 0.0 2.6 0.00 0.54 0.00 65 1017.8
20260507090205 39 229 0.9 4.3 0.00 0.54 0.00 64 1017.7
20260507085204 39 184 0.9 2.6 0.00 0.54 0.00 66 1017.6
20260507084704 39 271 0.0 1.7 0.00 0.54 0.00 65 1017.7
20260507084204 39 271 0.0 0.0 0.00 0.54 0.00 64 1017.7
20260507083204 39 221 0.0 1.7 0.00 0.54 0.00 65 1017.4
20260507082704 39 221 0.0 6.1 0.00 0.54 0.00 65 1017.5
20260507082205 38 187 0.9 6.1 0.00 0.54 0.00 70 1017.7
20260507081705 37 258 0.9 1.7 0.00 0.54 0.00 75 1017.8
20260507081204 37 258 0.0 0.9 0.00 0.54 0.00 79 1017.8
20260507080704 36 258 0.9 7.0 0.00 0.54 0.00 83 1017.9
20260507080204 35 255 2.6 7.8 0.00 0.54 0.00 88 1017.9
20260507075704 34 236 0.9 4.3 0.00 0.54 0.00 91 1018.0
20260507075203 34 269 1.7 7.0 0.00 0.54 0.00 92 1018.1
20260507074704 32 248 2.6 7.0 0.00 0.54 0.00 93 1018.1
20260507074205 32 241 0.9 4.3 0.00 0.54 0.00 93 1018.1
20260507073705 31 237 0.9 4.3 0.00 0.54 0.00 93 1018.2
20260507073205 31 285 0.0 1.7 0.00 0.54 0.00 93 1018.2
20260507072704 30 211 0.0 2.6 0.00 0.54 0.00 93 1018.4
20260507072204 30 203 0.0 1.7 0.00 0.54 0.00 93 1018.3
20260507071704 30 203 0.0 0.9 0.00 0.54 0.00 93 1018.4
20260507071204 30 203 0.0 1.7 0.00 0.54 0.00 93 1018.5
20260507070204 30 203 0.0 0.0 0.00 0.54 0.00 92 1018.6
20260507065704 30 203 0.0 0.9 0.00 0.54 0.00 92 1018.5
20260507065204 30 203 0.0 0.0 0.00 0.54 0.00 92 1018.5
20260507064703 30 203 0.0 0.0 0.00 0.54 0.00 92 1018.5
20260507064204 30 203 0.0 0.0 0.00 0.54 0.00 92 1018.5
20260507063704 30 203 0.0 0.0 0.00 0.54 0.00 92 1018.6
20260507063204 30 203 0.0 0.0 0.00 0.54 0.00 92 1018.6
20260507062704 30 203 0.0 0.9 0.00 0.54 0.00 92 1018.5
20260507062204 30 203 0.0 0.0 0.00 0.54 0.00 92 1018.5
20260507061704 30 203 0.0 0.0 0.00 0.54 0.00 92 1018.6
20260507061204 30 203 0.0 0.0 0.00 0.54 0.00 92 1018.6
20260507060705 30 203 0.0 0.0 0.00 0.54 0.00 91 1018.7
20260507055704 30 203 0.0 0.9 0.00 0.54 0.54 91 1018.7
20260507055204 30 203 0.0 1.7 0.00 0.54 0.54 91 1018.8
20260507054204 30 203 0.0 0.0 0.00 0.54 0.54 91 1018.8
20260507053703 30 203 0.0 0.0 0.00 0.54 0.54 91 1018.7
20260507053204 31 203 0.0 0.0 0.00 0.54 0.54 91 1018.8
20260507052704 31 203 0.0 0.0 0.00 0.54 0.54 91 1018.9
20260507052204 31 203 0.0 0.0 0.00 0.54 0.54 91 1019.0
20260507051204 31 203 0.0 0.9 0.00 0.54 0.54 90 1018.9
20260507050704 31 203 0.0 0.0 0.00 0.54 0.54 90 1019.1
20260507050204 31 203 0.0 0.0 0.00 0.54 0.54 90 1019.0
20260507045703 31 203 0.0 0.0 0.00 0.54 0.54 90 1019.0
20260507045204 31 203 0.0 0.0 0.00 0.54 0.54 90 1019.0
20260507044703 31 203 0.0 0.0 0.00 0.54 0.54 90 1019.0
20260507044204 31 203 0.0 0.0 0.00 0.54 0.54 90 1019.1
20260507043704 31 203 0.0 0.0 0.00 0.54 0.54 89 1019.0
20260507042703 32 203 0.0 0.9 0.00 0.54 0.54 89 1019.0
20260507042204 32 203 0.0 0.0 0.00 0.54 0.54 89 1019.0
20260507041704 32 203 0.0 0.9 0.00 0.54 0.54 88 1019.1
20260507041204 32 203 0.0 0.0 0.00 0.54 0.54 88 1019.1
20260507040704 32 203 0.0 0.9 0.00 0.54 0.54 88 1019.1
20260507035704 32 203 0.0 0.0 0.00 0.54 0.54 87 1019.1
20260507035204 32 203 0.0 0.0 0.00 0.54 0.54 87 1019.0
20260507034704 33 203 0.0 0.0 0.00 0.54 0.54 87 1019.0
20260507034204 33 203 0.0 0.0 0.00 0.54 0.54 86 1019.0
20260507033703 33 203 0.0 0.0 0.00 0.54 0.54 86 1019.1
20260507033203 33 203 0.0 0.0 0.00 0.54 0.54 85 1019.2
20260507032704 33 203 0.0 0.0 0.00 0.54 0.54 85 1019.0
20260507031703 34 203 0.0 0.0 0.00 0.54 0.54 84 1019.0
20260507030704 34 203 0.0 0.0 0.00 0.54 0.54 83 1019.0
20260507030203 34 203 0.0 0.0 0.00 0.55 0.54 82 1019.0
20260507025703 34 203 0.0 0.0 0.00 0.55 0.54 81 1018.9
20260507025204 35 203 0.0 0.0 0.00 0.55 0.54 81 1018.9
20260507024704 35 203 0.0 0.0 0.00 0.55 0.54 81 1018.9
20260507024204 35 203 0.0 0.0 0.00 0.55 0.54 80 1018.9
20260507023704 35 203 0.0 0.0 0.00 0.55 0.54 80 1018.8
20260507023203 36 203 0.0 0.0 0.00 0.55 0.54 79 1018.8
20260507022704 36 203 0.0 0.0 0.00 0.55 0.54 79 1018.8
20260507022203 36 203 0.0 0.0 0.00 0.55 0.54 78 1018.7
20260507021704 37 203 0.0 0.0 0.00 0.55 0.54 78 1018.7
20260507021204 37 203 0.0 0.0 0.00 0.55 0.54 77 1018.7
20260507020704 37 203 0.0 0.0 0.00 0.55 0.54 77 1018.7
20260507020203 38 203 0.0 0.0 0.00 0.55 0.54 77 1018.7
20260507015703 38 203 0.0 0.9 0.00 0.55 0.54 76 1018.6
20260507015204 38 203 0.0 1.7 0.00 0.55 0.54 76 1018.6
20260507014704 38 203 0.0 2.6 0.01 0.55 0.54 76 1018.6
20260507014204 39 203 0.0 1.7 0.01 0.55 0.54 75 1018.7
20260507013705 39 203 0.0 2.6 0.01 0.55 0.54 75 1018.8
20260507013204 39 203 0.9 2.6 0.02 0.55 0.54 74 1018.8
20260507012705 39 188 0.9 2.6 0.02 0.55 0.54 74 1018.9
20260507012204 39 210 0.9 2.6 0.02 0.55 0.54 73 1018.9
20260507011704 40 200 0.9 2.6 0.02 0.56 0.54 73 1018.9
20260507011204 40 178 0.0 4.3 0.02 0.56 0.54 73 1018.9
20260507010705 40 178 0.0 1.7 0.03 0.56 0.54 72 1019.0
20260507010205 40 178 0.9 4.3 0.03 0.56 0.54 72 1019.0
20260507005705 41 180 0.0 1.7 0.04 0.56 0.54 71 1019.0
20260507005204 41 180 0.9 4.3 0.04 0.56 0.54 71 1019.0
20260507004705 41 187 1.7 5.2 0.03 0.55 0.53 70 1019.1
20260507004205 41 188 0.9 2.6 0.04 0.55 0.53 70 1019.1
20260507003705 42 203 1.7 5.2 0.05 0.55 0.53 70 1019.1
20260507003205 42 185 1.7 6.1 0.04 0.54 0.52 70 1019.1
20260507002704 42 162 0.9 2.6 0.05 0.54 0.52 71 1019.2
20260507002204 42 180 0.0 0.9 0.06 0.54 0.52 69 1019.1
20260507001706 42 180 1.7 2.6 0.06 0.54 0.52 70 1019.2
20260507001205 42 226 0.9 2.6 0.07 0.54 0.52 70 1019.2
20260507000705 42 196 1.7 5.2 0.07 0.53 0.51 70 1019.2
20260507000205 42 174 0.9 4.3 0.08 0.53 0.51 70 1019.2
20260506235705 42 176 1.7 5.2 0.08 0.52 0.50 70 1019.2
20260506235204 42 172 0.9 4.3 0.09 0.52 0.50 69 1019.3
20260506234705 42 184 0.9 2.6 0.10 0.52 0.50 69 1019.3
20260506233705 42 157 0.0 4.3 0.10 0.50 0.48 67 1019.3
20260506233204 43 157 0.9 2.6 0.11 0.50 0.48 68 1019.2
20260506232705 43 176 1.7 4.3 0.11 0.49 0.47 69 1019.3
20260506231705 43 175 0.0 4.3 0.12 0.48 0.46 69 1019.3
20260506231205 43 213 0.9 4.3 0.11 0.47 0.45 69 1019.3
20260506230704 43 189 0.9 2.6 0.11 0.46 0.44 69 1019.4
20260506230205 43 184 0.9 1.7 0.11 0.45 0.43 70 1019.4
20260506225204 42 185 1.7 5.2 0.12 0.43 0.41 71 1019.4
20260506224705 42 172 0.9 2.6 0.12 0.42 0.40 73 1019.4
20260506223205 40 190 0.9 2.6 0.14 0.39 0.37 76 1019.6
20260506222704 40 178 0.0 2.6 0.15 0.38 0.36 75 1019.6
20260506222205 40 101 0.0 2.6 0.16 0.37 0.35 74 1019.8
20260506221205 40 122 0.9 2.6 0.18 0.37 0.34 74 1019.9
20260506220704 40 122 0.9 2.6 0.18 0.36 0.33 74 1020.0
20260506220205 40 122 0.9 2.6 0.18 0.35 0.32 73 1020.0
20260506215705 40 144 0.9 5.2 0.16 0.33 0.30 74 1020.1
20260506215205 40 148 0.9 2.6 0.16 0.32 0.29 74 1020.1
20260506214705 40 188 0.9 5.2 0.15 0.31 0.28 72 1020.1
20260506214204 41 90 0.9 5.2 0.14 0.29 0.26 71 1020.1
20260506213704 42 215 0.9 4.3 0.12 0.27 0.24 71 1020.2
20260506213204 42 198 0.0 1.7 0.11 0.26 0.23 74 1020.1
20260506212705 42 198 0.9 2.6 0.09 0.24 0.21 76 1020.2
20260506212204 41 198 0.0 1.7 0.08 0.22 0.19 77 1020.2
20260506211204 40 198 0.9 2.6 0.06 0.19 0.16 80 1020.3